COSMOS 1823 DEB

Satellite information

Favourite Embed

Satellite Type and Status

DEBRISIN ORBIT

Key statistics

Satellite COSMOS 1823 DEB at a glance.

Uptime

14135

Days in orbit

Revolutions

≈ 12.5

Per day

Orbit

LEO

Low Earth Orbit

Inclination

73.7

Latest

Satellite identification and parameters

Extended collection of information and parameters for COSMOS 1823 DEB.

Object identification

Identified? True

Debris? True

Object name: COSMOS 1823 DEB

International designator: 1987-020DX

Object number (NORAD): 29356

Object ID (CCSDS): 29356

Country: COMMONWEALTH OF INDEPENDENT STATES (CIS)

Current information (Y/N): Y

RCS size: SMALL

Orbital parameters

Period: 115.543 minutes

Inclination: 73.6576 deg

SMA: 7858.208 km

Apoapsis: 1509.024 km

Periapsis: 1451.122 km

RAAN: 29.1959 deg

Eccentricy: 0.00368422

Argument of periapsis: 92.2983 deg

Mean anomaly: 29.045 deg

Mean motion: 12.46285339 rev/day

Mean motion (dot): 0.00000142 rev/day2

B* drag term: 0.0010976538 1/REarth

Two-line elements (TLE)

Creation date: Oct. 6, 2025, 7:15 p.m.

Reference frame: TEME

Reference center: EARTH

Epoch: Sept. 29, 2025, 12:30 a.m. UTC

TLE line 0: 0 COSMOS 1823 DEB

TLE line 1: 1 29356U 87020DX 25272.02135480 .00000142 00000-0 10977-2 0 9996

TLE line 2: 2 29356 73.6576 29.1959 0036842 92.2983 29.0450 12.46285339549115

Live tracking on map

Real-time ground track for satellite COSMOS 1823 DEB.

In-orbit conjunctions

A list of the most updated potential collisions computed for object COSMOS 1823 DEB.

Target Orbit TCA Probability of collision Miss distance Type
DELTA 1 DEB SSO 2024-11-09 05:34:10 0.0001243958 268.0 (m) DEBRIS

Associated space launch

A satellite for the GEO-IK geodetic system

COSMOS 1823 DEB was lifted into orbit during the mission ‘Tsiklon-3 | Geo-IK 9’, on board a Tsiklon-3 space rocket.

The launch took place on Feb. 20, 1987, 4:43 a.m. from 32/2.

For more information about the launch, click the button.

Launch to space Tsiklon-3 | Geo-IK 9
Tsiklon-3 | Geo-IK 9

Agency: N/A

Status: Launch Successful

Launch date: Feb. 20, 1987, 4:43 a.m. UTC

Rocket: Tsiklon-3

Launch pad: 32/2

Location: Plesetsk Cosmodrome, Russian Federation

...

Latest news about this satellite

There are no fresh news available about this satellite. Check back as we update our databases every day.


Newsletter sign-up

Weekly statistics, charts and insights to help you stay on top of the space industry.